Stations météo

réclame
Mon MeteoGroup
Europlatform, Pays-Bas (6321): Température de l'air & dewpoint: 19.02.2020 03:00:00 - 25.02.2020 03:00:00 (CET)Europlatform, Pays-Bas (6321): water temperature: 19.02.2020 03:00:00 - 25.02.2020 03:00:00 (CET)Europlatform, Pays-Bas (6321): Vitesse du vent & gusts: 19.02.2020 03:00:00 - 25.02.2020 03:00:00 (CET)Europlatform, Pays-Bas (6321): Direction du vent: 19.02.2020 03:00:00 - 25.02.2020 03:00:00 (CET)Europlatform, Pays-Bas (6321): reduced air pressure: 19.02.2020 03:00:00 - 25.02.2020 03:00:00 (CET)Europlatform, Pays-Bas (6321): visibility: 19.02.2020 03:00:00 - 25.02.2020 03:00:00 (CET)
Date & Time tt [°C] td [°C] tw [°C] ff [km/h] ff [knt] fx [km/h] fx [knt] dd ppp [hPa] vv [km]
25.02.2020 03:00:00 8,5 2,9 6,0 54 29 61 33 WSW 1002,6 10
25.02.2020 02:00:00 8,8 2,7 6,0 46 25 54 29 W 1003,0 10
25.02.2020 01:00:00 8,9 2,2 6,0 43 23 72 39 W 1003,1 28
25.02.2020 00:00:00 9,9 6,1 6,0 54 29 61 33 WSW 1002,8 2,3
24.02.2020 23:00:00 10,3 7,4 6,0 50 27 65 35 SW 1002,5 10
24.02.2020 22:00:00 9,9 8,8 6,0 65 35 68 37 SW 1002,2 9
24.02.2020 21:00:00 10,2 8,9 6,0 67 36 76 41 SW 1002,5 9
24.02.2020 20:00:00 9,9 8,8 6,0 70 38 79 43 SSW 1002,1 8
24.02.2020 19:00:00 10,0 8,7 6,0 65 35 79 43 SSW 1002,9 9
24.02.2020 18:00:00 9,8 8,5 6,0 70 38 79 43 SSW 1003,0 9
24.02.2020 17:00:00 9,8 8,5 6,0 65 35 94 51 SW 1003,6 9
24.02.2020 16:00:00 9,0 8,9 6,0 76 41 94 51 SSW 1004,1 4,3
24.02.2020 15:00:00 9,0 8,9 6,0 72 39 90 49 SW 1005,2 4,0
24.02.2020 14:00:00 9,0 9,0 6,0 81 44 94 51 SSW 1006,3 5
24.02.2020 13:00:00 10,1 8,6 6,0 72 39 83 45 SSW 1007,7 9
24.02.2020 12:00:00 9,9 8,8 6,0 63 34 68 37 SSW 1009,2 10
24.02.2020 11:00:00 7,4 7,3 6,1 54 29 72 39 S 1010,2 3,5
24.02.2020 10:00:00 5,6 5,1 6,0 57 31 68 37 SE 1011,2 5
24.02.2020 09:00:00 5,1 4,0 6,0 57 31 61 33 SSE 1014,4 4,0
24.02.2020 08:00:00 6,4 2,3 6,1 42 23 43 23 SSE 1017,2 10
24.02.2020 07:00:00 7,5 1,7 6,0 32 18 36 19 SSE 1018,4 30
24.02.2020 06:00:00 7,6 1,4 6,0 22 12 25 14 S 1020,5 10
24.02.2020 05:00:00 7,5 0,8 6,0 5 3 14 8 SSW 1021,4 10
24.02.2020 04:00:00 7,5 1,0 6,0 15 8 25 14 W 1022,5 10
24.02.2020 03:00:00 7,5 1,1 6,0 24 13 29 16 W 1023,2 10
24.02.2020 02:00:00 7,5 1,4 6,0 28 15 32 18 W 1023,5 10
24.02.2020 01:00:00 7,5 0,5 6,0 34 18 43 23 W 1023,4 10
24.02.2020 00:00:00 7,6 0,0 6,0 41 22 47 25 W 1023,6 10
23.02.2020 23:00:00 7,7 0,2 6,0 48 26 54 29 W 1023,1 10
23.02.2020 22:00:00 7,9 0,2 6,0 54 29 58 31 WNW 1022,5 10
23.02.2020 21:00:00 8,2 -0,6 6,0 52 28 61 33 WNW 1021,8 10
23.02.2020 20:00:00 8,6 0,6 6,0 52 28 61 33 WNW 1020,7 10
23.02.2020 19:00:00 8,9 3,0 6,0 41 22 54 29 WNW 1019,0 10
23.02.2020 18:00:00 9,2 4,2 6,0 37 20 47 25 WNW 1017,5 10
23.02.2020 17:00:00 9,0 4,8 6,0 46 25 65 35 WNW 1015,9 10
23.02.2020 16:00:00 10,2 6,1 6,0 48 26 58 31 W 1013,8 10
23.02.2020 15:00:00 10,3 7,0 6,0 48 26 68 37 W 1012,2 10
23.02.2020 14:00:00 10,4 9,6 6,0 58 31 79 43 SW 1010,0 4,9
23.02.2020 13:00:00 10,5 9,5 6,0 74 40 83 45 SW 1008,8 7
23.02.2020 12:00:00 10,6 9,1 6,0 76 41 86 47 SW 1008,6 7
23.02.2020 11:00:00 10,7 9,2 6,0 74 40 83 45 SW 1008,3 7
23.02.2020 10:00:00 10,6 9,4 6,0 76 41 94 51 SW 1008,4 6
23.02.2020 09:00:00 10,8 9,4 6,0 80 43 97 53 SW 1008,5 6
23.02.2020 08:00:00 10,7 9,4 6,0 81 44 94 51 SSW 1008,6 6
23.02.2020 07:00:00 9,7 9,7 6,0 61 33 76 41 SSW 1009,8 6
23.02.2020 06:00:00 8,0 7,5 6,0 46 25 61 33 SSW 1012,3 3,0
23.02.2020 05:00:00 8,6 8,4 6,0 54 29 68 37 SSW 1015,5 4,4
23.02.2020 04:00:00 9,1 7,9 6,0 50 27 58 31 SW 1017,6 6
23.02.2020 03:00:00 9,2 7,3 6,0 46 25 54 29 SW 1018,6 6
23.02.2020 02:00:00 9,6 6,5 6,0 50 27 61 33 SW 1019,3 10
23.02.2020 01:00:00 9,7 6,3 6,0 50 27 54 29 SW 1019,9 10
23.02.2020 00:00:00 9,7 6,6 6,0 46 25 50 27 SW 1020,1 10
22.02.2020 23:00:00 10,0 6,2 6,0 46 25 50 27 SW 1019,7 10
22.02.2020 22:00:00 10,3 5,8 6,0 52 28 58 31 WSW 1020,0 10
22.02.2020 21:00:00 10,4 6,0 6,0 52 28 61 33 WSW 1020,0 10
22.02.2020 20:00:00 10,7 6,2 6,0 50 27 54 29 SW 1019,5 10
22.02.2020 19:00:00 11,0 6,1 6,0 50 27 58 31 SW 1019,0 10
22.02.2020 18:00:00 9,9 8,1 6,0 48 26 54 29 SW 1018,2 10
22.02.2020 17:00:00 10,2 8,2 6,0 55 30 65 35 SW 1017,6 10
22.02.2020 16:00:00 10,2 8,6 6,0 61 33 65 35 SSW 1017,2 9
22.02.2020 15:00:00 10,2 8,7 6,0 65 35 76 41 SSW 1016,9 9
22.02.2020 14:00:00 10,2 8,7 6,0 67 36 76 41 SW 1016,7 9
22.02.2020 13:00:00 9,9 8,5 6,0 61 33 76 41 SSW 1016,4 8
22.02.2020 12:00:00 9,8 8,2 6,0 70 38 79 43 SSW 1015,8 7
22.02.2020 11:00:00 9,6 7,9 6,0 76 41 86 47 SSW 1015,9 7
22.02.2020 10:00:00 9,7 7,5 6,0 80 43 86 47 SSW 1015,4 7
22.02.2020 09:00:00 9,7 7,1 6,0 78 42 90 49 SSW 1015,8 8
22.02.2020 08:00:00 9,5 6,6 6,0 76 41 90 49 SSW 1015,4 8
22.02.2020 07:00:00 9,2 6,5 6,0 80 43 90 49 SSW 1015,6 9
22.02.2020 06:00:00 9,1 6,1 6,0 78 42 86 47 SSW 1015,6 10
22.02.2020 05:00:00 9,1 6,3 6,0 78 42 86 47 SSW 1016,2 10
22.02.2020 04:00:00 9,3 6,0 6,0 78 42 90 49 SSW 1017,2 10
22.02.2020 03:00:00 9,4 6,0 6,0 76 41 86 47 SSW 1017,7 10
22.02.2020 02:00:00 9,3 6,1 6,0 65 35 83 45 SSW 1017,9 11
22.02.2020 01:00:00 9,4 5,8 6,0 68 37 86 47 SW 1019,2 10
22.02.2020 00:00:00 9,5 5,9 6,0 74 40 83 45 SW 1019,7 10
21.02.2020 23:00:00 9,5 6,2 6,0 65 35 76 41 SW 1019,8 10
21.02.2020 22:00:00 9,4 6,6 6,0 65 35 76 41 SSW 1020,1 9
21.02.2020 21:00:00 9,4 6,5 6,0 63 34 72 39 SSW 1020,9 10
21.02.2020 20:00:00 9,3 6,5 6,0 65 35 72 39 SSW 1021,0 10
21.02.2020 19:00:00 9,2 6,5 6,0 61 33 68 37 SSW 1021,9 10
21.02.2020 18:00:00 9,1 6,6 6,0 63 34 68 37 SSW 1022,6 10
21.02.2020 17:00:00 9,1 6,3 6,0 61 33 68 37 SSW 1022,3 10
21.02.2020 16:00:00 9,0 6,2 6,0 57 31 68 37 SSW 1022,4 10
21.02.2020 15:00:00 8,9 5,7 6,0 55 30 68 37 SSW 1022,9 10
21.02.2020 14:00:00 8,8 4,6 6,0 55 30 65 35 SSW 1023,5 10
21.02.2020 13:00:00 8,4 4,5 6,0 57 31 65 35 SW 1024,0 10
21.02.2020 12:00:00 8,1 3,9 6,0 55 30 65 35 SW 1023,9 10
21.02.2020 11:00:00 7,8 4,2 6,0 48 26 58 31 SW 1024,1 10
21.02.2020 10:00:00 8,0 3,8 6,0 48 26 54 29 WSW 1023,7 10
21.02.2020 09:00:00 7,8 3,8 6,0 54 29 58 31 WSW 1023,3 10
21.02.2020 08:00:00 7,5 3,3 6,0 52 28 54 29 WSW 1022,9 10
21.02.2020 07:00:00 7,4 2,7 6,0 52 28 54 29 WSW 1022,7 10
21.02.2020 06:00:00 7,1 2,2 6,0 52 28 58 31 W 1022,4 10
21.02.2020 05:00:00 7,1 2,1 6,0 55 30 65 35 W 1021,7 10
21.02.2020 04:00:00 7,1 2,3 6,0 59 32 68 37 W 1021,3 10
21.02.2020 03:00:00 6,9 1,1 6,0 59 32 65 35 W 1020,7 10
21.02.2020 02:00:00 7,0 1,8 6,0 57 31 65 35 WSW 1020,3 10
21.02.2020 01:00:00 7,0 1,1 6,0 55 30 72 39 W 1018,8 10
21.02.2020 00:00:00 6,9 0,9 6,0 65 35 72 39 W 1018,0 10
20.02.2020 23:00:00 7,1 1,1 6,0 65 35 76 41 W 1016,7 10
20.02.2020 22:00:00 6,9 1,5 6,0 63 34 79 43 W 1015,4 10
20.02.2020 21:00:00 6,9 1,6 6,0 65 35 72 39 W 1013,5 10
20.02.2020 20:00:00 6,8 3,6 6,0 57 31 68 37 W 1012,1 10
20.02.2020 19:00:00 7,0 3,5 5,9 42 23 68 37 W 1010,4 10
20.02.2020 18:00:00 6,9 4,9 6,0 59 32 83 45 W 1007,6 6
20.02.2020 17:00:00 8,4 8,3 6,0 74 40 83 45 SSW 1005,4 2,6
20.02.2020 16:00:00 8,2 8,0 5,8 70 38 83 45 S 1006,0 2,5
20.02.2020 15:00:00 9,2 6,6 6,0 61 33 83 45 SSW 1007,2 9
20.02.2020 14:00:00 9,7 6,4 6,0 65 35 76 41 SSW 1007,8 10
20.02.2020 13:00:00 9,3 6,7 6,0 61 33 68 37 SSW 1009,1 10
20.02.2020 12:00:00 8,7 6,7 6,0 59 32 72 39 S 1010,2 10
20.02.2020 11:00:00 9,0 6,6 6,0 57 31 65 35 S 1010,6 10
20.02.2020 10:00:00 9,1 6,4 6,0 55 30 65 35 SSW 1011,2 10
20.02.2020 09:00:00 8,8 6,8 6,0 52 28 61 33 SSW 1012,0 10
20.02.2020 08:00:00 9,1 7,1 6,0 50 27 58 31 SSW 1012,1 10
20.02.2020 07:00:00 9,0 7,6 6,0 55 30 65 35 SSW 1012,7 10
20.02.2020 06:00:00 9,0 7,6 6,0 52 28 58 31 SSW 1012,9 9
20.02.2020 05:00:00 9,2 7,4 6,0 59 32 68 37 SSW 1013,3 10
20.02.2020 04:00:00 9,0 7,7 6,0 54 29 58 31 SSW 1013,6 10
20.02.2020 03:00:00 9,0 7,6 6,0 59 32 65 35 SSW 1014,1 10
20.02.2020 02:00:00 9,3 7,6 6,0 55 30 61 33 SSW 1014,7 9
20.02.2020 01:00:00 9,2 7,9 6,0 43 23 54 29 SSW 1015,1 10
20.02.2020 00:00:00 8,8 7,8 5,8 54 29 58 31 SSW 1015,5 3,1
19.02.2020 23:00:00 8,2 7,3 5,8 48 26 54 29 S 1016,1 10
19.02.2020 22:00:00 7,9 6,9 6,0 46 25 54 29 SSW 1016,9 10
19.02.2020 21:00:00 7,4 6,4 6,0 46 25 50 27 S 1017,3 10
19.02.2020 20:00:00 7,5 5,9 6,0 44 24 47 25 SSW 1018,2 10
19.02.2020 19:00:00 7,5 4,5 6,0 44 24 50 27 SSW 1019,0 10
19.02.2020 18:00:00 7,5 3,0 6,0 48 26 50 27 SW 1019,6 10
19.02.2020 17:00:00 7,7 3,3 6,0 46 25 47 25 WSW 1019,7 10
19.02.2020 16:00:00 7,5 1,9 6,0 41 22 47 25 SW 1020,0 10
19.02.2020 15:00:00 7,1 2,4 6,0 41 22 43 23 WSW 1020,5 10
19.02.2020 14:00:00 6,8 1,6 6,0 41 22 47 25 WSW 1020,6 10
19.02.2020 13:00:00 6,6 1,2 6,0 46 25 47 25 WSW 1020,5 10
19.02.2020 12:00:00 6,7 1,2 6,0 46 25 50 27 W 1020,2 10
19.02.2020 11:00:00 6,5 1,4 6,0 54 29 58 31 W 1019,7 10
19.02.2020 10:00:00 6,0 1,5 6,0 52 28 58 31 WSW 1019,3 10
19.02.2020 09:00:00 6,4 1,3 6,0 44 24 58 31 W 1018,4 10
19.02.2020 08:00:00 6,1 1,7 6,0 52 28 58 31 W 1017,6 10
19.02.2020 07:00:00 6,1 1,6 6,0 50 27 61 33 W 1016,8 21
19.02.2020 06:00:00 6,3 1,7 6,0 57 31 61 33 W 1016,2 10
19.02.2020 05:00:00 6,3 1,6 6,0 54 29 65 35 W 1015,0 10
19.02.2020 04:00:00 6,5 1,8 6,0 57 31 61 33 W 1014,3 10
19.02.2020 03:00:00 6,8 2,4 6,0 47 25 65 35 W 1013,7 26

tt = Température de l'air
td = dewpoint
tw = water temperature
ff = Vitesse du vent
fx = gusts
dd = Direction du vent
ppp = reduced air pressure
vv = visibility

stations d'obs. à proximité